Zurück zum Katalog

STARLINK-31380

AktivKommunikationVLEO
NORAD 58979·PAYLOAD·🇺🇸 United States

Gestartet Feb 15, 2024 von Vandenberg Space Force Base

Loading…

Nächste Überflüge (nächste 24 Stunden)

TLE

AktuellSource: CelesTrak SupGP

Epoche: Sep 15, 2026, 02:35 UTC

1 58979C 24031Q   26258.10812500  .00031560  00000+0  93254-3 0  2586
2 58979  53.1563 134.6868 0001291  86.8720 311.7037 15.34371198    18

Verfolge STARLINK-31380 in Echtzeit mit AllMySat

Download on the App Store